Hourly Data Report for September 20, 2017

All times are specified in Local Standard Time (LST). Add 1 hour to adjust for Daylight Saving Time where and when it is observed.

PANGNIRTUNG
NUNAVUT

66°08'36.300" N
65°42'40.500" W
22.60 m
2403049
71826
WXP

Download Data

Hourly Data (September 2017)
Hourly Data Report for September 20, 2017
Temp Definition
°C
Dew Point Temp Definition
°C
Rel Hum Definition
%
Wind Dir Definition
10's deg

Wind Spd Definition
km/h
Visibility Definition
km
Stn Press Definition
kPa
Hmdx Definition


Wind Chill Definition


Weather Definition


TIME
00:00 3.9 -0.2 75 11 15   101.06     LegendNANA
01:00 4.8 0.3 73 11 9   101.08     LegendNANA
02:00 4.4 0.3 75 11 12   101.11     LegendNANA
03:00 2.2 -0.1 85 24 9   101.18     LegendNANA
04:00 2.3 0.4 87 25 9   101.23     LegendNANA
05:00 2.1 0.0 86 25 4   101.28     LegendNANA
06:00 1.8 0.2 89 24 15   101.33     LegendNANA
07:00 2.4 0.6 89 24 18   101.39     LegendNANA
08:00 2.5 0.6 87 24 15   101.45     LegendNANA
09:00 3.0 0.9 86 25 10   101.49     LegendNANA
10:00 3.5 1.4 86 25 18   101.52     LegendNANA
11:00 3.2 1.2 87 25 19   101.55     LegendNANA
12:00 3.6 1.4 86 25 17   101.59     LegendNANA
13:00 3.4 1.2 85 25 19   101.61     LegendNANA
14:00 3.1 1.2 88 25 21   101.68     LegendNANA
15:00 2.9 1.1 88 25 18   101.73     LegendNANA
16:00 2.7 1.3 90 25 15   101.78     LegendNANA
17:00 2.1 0.7 91 25 13   101.81     LegendNANA
18:00 1.7 0.4 91 24 6   101.79     LegendNANA
19:00 1.7 0.5 92 24 12   101.81     LegendNANA
20:00 1.7 0.5 92 23 7   101.84     LegendNANA
21:00 1.7 0.8 94 24 8   101.86     LegendNANA
22:00 1.7 1.0 95 24 9   101.86     LegendNANA
23:00 1.6 0.8 95 17 2   101.85     LegendNANA

Notes on Data Quality.

Legend

  • E = Estimated
  • M = Missing
  • NA = Not Available
  • ‡ = Partner data that is not subject to review by the National Climate Archives
Date modified: